Regional Weather Roundup
Issued by NWS Mt. Holly, NJ

Home | Current Version | Previous Version | Text Only | Print | Product List | Glossary On
Versions: 1 2 3 4 5 6 7 8 9 10 11 12 13 14 15 16 17 18 19 20 21 22 23 24 25 26 27 28 29 30 31 32 33 34 35 36 37 38 39 40 41 42 43 44 45 46 47 48 49 50
000
ASUS41 KPHI 200112
RWRPHI

REGIONAL WEATHER ROUNDUP
NATIONAL WEATHER SERVICE MOUNT HOLLY NJ
900 PM EDT SAT AUG 19 2017

NOTE:  "FAIR" INDICATES FEW OR NO CLOUDS BELOW 12,000 FEET WITH NO
SIGNIFICANT WEATHER AND/OR OBSTRUCTIONS TO VISIBILITY.

 * = STATION DOES NOT REPORT PRECIPITATION (E.G. RAIN, SNOW, ETC.)
        OR FOG.

NJZ015>026-200200-
SOUTHERN NEW JERSEY

CITY           SKY/WX    TMP DP  RH WIND       PRES   REMARKS
POMONA         CLEAR     80  69  69 SW5       29.90R
WILDWOOD*      PTCLDY    76  70  82 S6        29.92R
MILLVILLE      CLEAR     77  73  87 CALM      29.90R
WRIGHTSTOWN    CLEAR     75  67  76 W3        29.86R
MOUNT HOLLY    CLEAR     75  67  76 CALM      29.88R
TRENTON        CLEAR     79  65  62 SW3       29.87S

$$
NJZ001>014-200200-
NORTHERN NEW JERSEY

CITY           SKY/WX    TMP DP  RH WIND       PRES   REMARKS
SUSSEX         CLEAR     72  69  90 CALM      29.87R
ANDOVER*         N/A     70  68  93 CALM      29.89R
MORRISTOWN     PTCLDY    79  66  65 W8        29.87R
NEWARK         PTCLDY    80  65  59 SW8       29.86R
TETERBORO      CLEAR     82  64  54 SW7       29.84R
CALDWELL       CLEAR     78  67  68 CALM      29.86R
SOMERVILLE     CLEAR     72  70  93 CALM      29.85S
ALLAIRE*       CLEAR     79  67  66 SW6       29.89R
TOMS RIVER*    CLEAR     74  69  85 SW3       29.89R

$$
PAZ043-044-047-054-055-060>062-066>071-200200-
EASTERN PENNSYLVANIA

CITY           SKY/WX    TMP DP  RH WIND       PRES   REMARKS
PHILADELPHIA   PTCLDY    82  67  60 SW8       29.89R
NORTH PHILA    CLEAR     81  66  60 SW6       29.89S
BLUE BELL*     CLEAR     72  68  88 CALM      29.90S
DOYLESTOWN     CLEAR     74  66  76 CALM      29.89R
QUAKERTOWN*    CLEAR     73  68  83 CALM      29.91R
PERKASIE*      FAIR      72  70  94 SW3       29.91R
POTTSTOWN      CLEAR     75  68  78 W5        29.92R
LANCASTER      LGT RAIN  68  64  87 W10       29.94R
COATESVILLE    CLEAR     77  68  73 VRB3      29.94R
READING        TSTM      67  65  93 CALM      29.93R FOG
ALLENTOWN      CLEAR     75  65  70 SW8       29.89R
MOUNT POCONO     N/A     69  65  86 W7        29.95R
HAZLETON       TSTM      70  59  68 SW7G30    29.99R
LEHIGHTON      FAIR      70  68  94 CALM      29.90R
WILKES BARRE   MOCLDY    71  59  65 NW14G39   29.95R

$$
DEZALL-MDZ008-012-015-019-020-200200-
DELAWARE AND EASTERN MARYLAND

CITY           SKY/WX    TMP DP  RH WIND       PRES   REMARKS
WILMINGTON     CLEAR     79  69  71 SW5       29.90R
DOVER          CLEAR     77  70  78 S3        29.91R
GEORGETOWN     PTCLDY    76  71  85 CALM      29.92R
ABERDEEN       CLEAR     75  71  88 CALM      29.90R
PATUXENT       CLEAR     77  72  84 S5        29.92R
OCEAN CITY     PTCLDY    76  73  91 W3        29.93R
WALLOPS ISLAND PTCLDY    78  71  79 SW6       29.93R
CAMBRIDGE      CLEAR     75  73  94 CALM      29.92R
SALISBURY      CLEAR     76  72  87 CALM      29.92R

$$
PAZ001-021-NYZ056-072-MDZ011-DCZ001-200200-
OTHER NEARBY LOCATIONS

CITY           SKY/WX    TMP DP  RH WIND       PRES   REMARKS
HARRISBURG     CLOUDY    68  64  87 E3        29.91F
STATE COLLEGE  CLEAR     61  59  94 CALM      29.97R
WILLIAMSPORT   CLOUDY    69  65  86 W9        29.89R
BINGHAMTON     MOCLDY    62  61  96 S3        29.92R
NEW YORK CITY  CLEAR     80  63  55 VRB5      29.89R
BALTIMORE      PTCLDY    76  70  82 S3        29.90R
WASHINGTON DC  PTCLDY    83  71  67 S6        29.91R

$$



USA.gov is the U.S. government's official web portal to all federal, state and local government web resources and services.